Location: El Diablo
(32.4667°N, 116.4500°W)
Time: 01:02:32
(UTC+00:00)

Cosmos 2151 - Pass Details

Date: 10 September 2024
Orbit: 567 x 586 km, 82.5° (Epoch: 06 October)

Event Time Altitude Azimuth Distance (km) Brightness Sun altitude
Rises 12:48:21 0° 348° (NNW) 2,770 6.4 -8.9°
Reaches altitude 10° 12:50:34 10° 344° (NNW) 1,871 5.5 -8.4°
Maximum altitude 12:54:36 55° 266° (W) 687 3.0 -7.6°
Drops below altitude 10° 12:58:37 10° 189° (S) 1,867 5.3 -6.7°
Sets 13:00:49 0° 185° (S) 2,763 6.2 -6.3°
